Theta_e
309 309 309 309 310 310 311 311 311 312 312 313 313 314 314 315 316 316 317 315 313 312 311 311 311 313 314 315 316 318 319 321 321 319 323 321 319 329 330 331 334 340 349 352 352 356 354 354 358 354 356 363 367 369 365 367 375 374 377 372 360 364 369 366 367 368 364 362 363 363 363 359 355 358 353 349 351 350 351 349 348 349 348 349 350 351 352 352
310 309 310 309 310 310 311 311 311 312 312 313 313 313 314 315 316 317 318 317 314 312 312 312 310 312 314 315 316 319 320 324 328 327 327 320 320 328 330 329 335 342 349 351 352 355 353 357 361 357 361 370 367 365 365 366 372 378 379 370 365 370 368 364 365 363 362 362 364 362 358 360 360 356 351 352 351 350 352 351 350 350 349 350 350 351 352 352
310 310 310 310 311 311 311 311 311 312 312 313 313 313 314 315 316 317 319 318 316 312 312 312 311 312 313 315 317 320 324 327 337 342 333 320 321 329 330 329 335 342 347 350 352 354 354 356 358 357 361 367 364 363 367 367 368 374 375 372 368 368 364 362 363 361 361 362 365 364 360 364 361 351 351 354 352 351 354 352 352 351 350 350 350 351 351 351
310 310 310 311 311 311 312 312 312 312 313 312 313 313 314 315 316 317 318 319 317 314 313 312 311 311 312 314 316 322 327 332 337 338 332 322 323 330 329 330 335 341 346 349 353 353 352 354 355 356 360 363 364 365 368 366 363 366 370 373 367 363 366 365 364 364 363 361 363 370 367 362 359 352 352 355 357 357 353 351 351 351 350 349 349 349 350 350
309 310 310 310 311 311 311 312 312 312 313 313 313 314 314 314 315 316 317 319 318 315 313 313 312 311 312 314 319 324 327 332 330 331 331 325 327 330 329 330 333 338 344 349 351 351 350 352 354 355 357 360 363 363 365 363 365 367 364 367 364 365 368 366 366 365 364 365 366 374 370 360 361 357 355 360 363 359 351 350 349 348 349 348 348 349 350 349
311 311 311 312 312 312 312 313 313 313 314 314 314 314 314 314 314 316 316 318 319 315 313 314 312 311 311 315 322 326 325 327 328 327 328 326 328 330 328 329 330 333 341 347 348 348 350 349 353 356 354 358 363 361 362 362 368 372 365 364 366 368 370 365 367 366 366 372 374 375 368 364 372 363 358 365 362 356 349 347 348 347 347 348 348 348 348 349
315 315 315 316 316 316 317 317 317 317 317 316 316 316 315 315 315 315 316 317 318 315 314 314 313 311 312 317 324 328 331 329 324 324 327 326 328 331 329 328 328 331 338 343 343 344 348 348 351 353 351 357 361 359 366 367 366 374 369 366 369 371 372 367 367 367 369 377 375 372 365 368 379 367 363 366 354 350 348 346 347 346 346 347 347 347 347 348
319 319 319 320 320 320 320 321 321 321 321 320 320 319 318 317 316 316 316 317 318 316 315 315 314 312 312 318 324 330 334 332 324 324 328 326 326 329 328 326 327 330 335 339 341 343 345 349 350 350 351 355 360 361 367 366 362 371 368 366 372 371 370 365 362 366 370 375 371 367 367 368 372 365 367 372 354 346 347 345 346 345 345 346 346 346 347 348
320 321 321 321 322 322 322 322 323 323 323 323 322 322 321 321 319 318 317 317 318 316 316 317 315 312 312 321 326 327 328 328 327 328 327 327 326 326 328 327 326 330 334 336 339 342 344 348 347 348 349 349 358 363 363 368 367 365 364 366 370 368 369 365 363 367 368 373 369 367 374 377 373 364 365 372 355 344 347 345 345 345 345 345 346 346 346 347
321 321 321 321 322 322 323 323 323 323 324 324 324 324 323 323 322 320 318 317 318 317 317 317 315 312 315 326 331 325 323 326 329 330 327 326 325 326 326 326 326 329 335 337 338 340 342 345 346 345 346 348 356 359 360 370 367 357 360 368 370 370 372 367 367 368 365 370 369 368 376 381 375 364 363 370 356 345 346 346 346 346 345 346 345 345 345 346
321 321 321 322 322 322 323 323 323 324 324 324 324 325 324 324 323 321 318 316 317 317 317 317 314 313 318 329 331 324 324 327 328 328 327 324 326 327 326 327 329 331 334 339 339 340 341 343 344 341 344 348 352 356 360 362 357 356 363 370 371 371 370 366 368 367 365 369 369 371 371 372 371 367 377 380 363 348 346 346 347 345 346 346 345 345 345 345
319 319 321 321 321 322 322 323 323 324 324 325 325 325 324 324 324 321 317 316 318 317 316 315 312 314 321 328 327 322 321 326 326 326 327 325 327 330 328 329 335 337 337 338 339 341 341 341 339 336 340 347 349 353 356 353 356 361 365 373 373 370 369 367 367 367 369 368 372 370 359 364 370 369 385 383 360 348 346 346 346 345 345 345 345 346 345 345
316 317 319 319 320 321 321 322 323 324 324 324 324 325 324 324 325 321 316 317 318 315 314 313 312 316 323 325 322 319 319 323 322 323 324 323 325 328 332 334 338 342 340 340 341 340 341 339 335 334 335 343 346 349 352 347 356 362 365 373 373 366 369 372 368 370 371 368 374 365 353 365 373 367 380 377 360 355 353 348 345 344 345 344 344 345 345 344
314 316 316 318 319 319 320 321 322 323 323 325 325 325 325 325 325 321 317 317 317 314 312 311 313 321 328 325 319 318 318 320 320 320 320 321 324 327 333 338 338 340 341 340 340 340 342 335 332 334 333 340 345 344 348 347 358 367 359 362 368 360 367 376 371 372 371 369 373 363 356 370 372 364 373 374 366 362 361 357 350 345 344 345 345 343 346 345
312 314 314 316 317 318 319 320 321 322 323 324 324 325 324 324 325 321 318 317 315 313 312 311 315 325 331 324 318 318 321 323 322 322 320 322 328 330 333 338 339 339 340 340 340 341 340 332 332 334 333 340 345 346 352 355 369 375 351 346 357 353 362 375 369 372 373 369 371 362 359 370 369 367 371 374 372 368 367 365 359 352 344 344 345 344 345 344
311 312 312 314 315 316 318 319 321 321 322 324 324 325 324 324 325 321 319 317 313 311 312 317 320 323 326 321 320 323 326 328 325 323 323 324 329 332 332 336 338 339 339 340 341 340 337 333 332 333 335 339 345 352 353 349 353 364 354 347 352 347 354 370 369 370 374 372 371 365 364 367 366 367 370 371 370 369 369 365 363 359 351 345 344 344 345 345
310 311 312 313 314 315 316 318 320 321 322 323 324 325 324 325 324 321 320 317 314 314 315 320 321 321 324 321 325 330 328 327 324 323 324 324 328 330 331 332 335 336 337 338 337 335 332 331 331 332 333 334 343 351 346 338 337 346 353 350 353 351 351 362 369 369 371 374 371 367 367 367 365 367 367 366 365 365 367 365 364 362 358 352 345 345 345 346
311 311 312 312 313 315 316 317 319 320 321 322 323 324 324 325 322 321 322 319 320 323 320 322 323 322 327 328 331 333 329 325 323 324 325 325 327 329 330 330 332 333 334 335 334 333 330 330 330 330 331 331 339 347 339 335 335 339 344 343 346 351 352 358 365 368 370 372 371 368 368 367 366 365 363 362 362 363 362 363 364 361 362 360 352 347 345 346
311 311 311 312 313 314 315 316 317 318 319 322 324 323 324 326 325 325 323 324 329 329 324 328 329 326 328 329 330 330 329 326 323 324 326 325 326 328 329 329 332 333 332 332 332 332 330 329 328 325 327 326 333 341 339 339 340 342 347 346 346 347 351 360 366 367 368 368 369 367 367 366 364 364 364 362 363 362 360 361 363 363 363 359 355 351 347 347
311 312 312 312 313 314 315 316 317 316 318 321 322 322 325 329 332 332 328 329 333 330 323 329 329 327 326 324 323 326 328 328 326 325 326 327 326 327 328 328 332 332 331 331 330 330 328 328 326 324 326 326 327 333 337 340 343 344 346 348 349 346 346 356 367 369 367 364 364 364 365 365 363 363 363 362 361 361 359 358 360 363 362 355 353 352 348 348
312 311 312 312 313 314 316 316 316 316 317 319 320 323 326 326 329 331 331 331 330 328 326 327 326 326 325 322 323 324 324 326 327 326 325 327 326 327 329 329 330 332 331 330 329 329 327 325 325 326 326 327 326 327 331 334 339 345 345 344 344 343 346 352 363 369 366 363 362 363 362 361 362 363 362 361 361 361 359 358 356 358 359 354 354 353 349 350
312 312 313 312 313 315 315 316 316 316 318 319 319 322 325 323 324 325 326 327 326 327 327 326 325 325 324 324 325 325 324 325 326 326 326 325 325 328 330 330 330 333 332 331 330 329 327 325 326 326 325 325 326 326 328 329 335 342 342 339 335 341 349 350 361 371 365 361 363 363 359 358 360 360 362 362 359 358 356 355 354 355 355 355 355 353 351 352
312 313 312 313 314 314 316 317 317 318 320 321 319 321 325 325 326 325 323 324 324 326 329 328 326 327 326 327 326 326 326 325 325 325 323 323 325 327 330 330 331 333 330 330 331 326 323 325 326 326 324 325 326 325 327 327 331 338 340 335 332 342 346 339 354 372 366 362 366 363 355 358 363 359 360 361 357 358 355 354 355 353 353 354 352 350 350 353
312 313 313 313 313 315 317 316 318 321 321 321 322 325 326 326 326 325 324 324 325 324 325 327 328 328 327 328 327 328 327 325 323 324 322 324 326 327 330 330 330 332 331 331 331 327 325 326 327 326 326 327 326 326 328 326 326 333 339 334 333 345 345 339 354 369 363 358 363 358 345 350 364 361 360 362 358 358 359 358 357 355 352 352 351 349 349 351
313 313 313 313 313 315 316 317 322 323 321 321 324 326 326 325 325 325 324 327 328 326 323 323 325 327 327 328 328 327 326 325 324 323 321 324 327 328 329 329 330 331 332 330 329 329 328 327 328 327 328 328 326 328 327 326 324 325 332 334 335 345 344 345 358 361 352 347 358 353 335 342 363 361 360 363 360 359 359 359 358 356 354 352 352 349 348 350
313 313 313 314 314 315 317 322 324 322 321 324 326 326 326 325 324 323 327 329 327 326 326 324 325 326 327 329 330 328 325 325 325 324 322 323 327 329 329 328 329 329 329 329 329 328 327 327 328 326 327 328 327 327 327 330 324 319 330 336 332 336 338 345 352 350 343 342 353 349 335 342 355 355 359 363 361 360 358 359 357 356 355 352 352 349 348 350
314 314 314 314 314 314 318 323 320 320 325 327 326 326 325 325 325 322 328 328 327 328 326 324 324 324 326 328 329 326 323 325 326 325 323 325 327 329 329 329 328 327 329 327 324 326 329 328 329 329 329 328 327 325 330 332 323 320 334 334 330 331 334 344 347 341 342 341 340 343 342 345 347 350 358 362 360 361 359 360 358 355 353 351 350 349 347 349
315 315 315 315 315 314 316 319 317 321 326 326 325 326 325 325 324 326 328 327 330 328 325 324 323 324 325 327 328 326 325 326 326 325 325 325 328 328 329 329 328 328 329 326 320 325 331 329 329 330 329 327 328 329 332 332 323 326 334 329 328 329 331 346 345 336 339 333 328 336 338 339 343 354 360 361 360 360 361 361 359 356 353 351 351 349 348 348
316 316 316 316 315 316 318 318 318 323 325 325 326 325 326 324 326 331 330 328 332 325 325 325 322 323 325 327 327 325 324 325 325 326 326 327 327 328 328 327 327 326 327 326 324 326 330 328 329 330 328 328 331 333 331 330 327 328 330 326 328 330 332 342 341 335 332 325 324 332 331 327 334 349 357 356 356 358 359 360 358 357 354 352 351 350 349 348
316 316 317 317 316 318 319 318 321 324 325 325 325 325 325 326 332 332 323 325 329 325 325 324 323 325 325 326 326 325 324 323 324 325 325 326 326 326 328 326 326 327 327 327 327 328 328 329 332 331 329 331 331 332 330 328 329 328 327 326 326 337 344 343 344 338 323 321 331 335 330 325 327 339 351 355 356 356 358 358 356 356 355 354 354 350 349 349
317 317 318 319 318 318 319 321 324 324 324 324 325 326 327 329 334 329 323 324 325 323 324 324 325 326 325 326 326 324 323 323 323 324 325 327 325 326 328 326 326 326 326 325 326 329 328 327 330 329 330 330 326 329 330 330 329 324 329 330 323 332 343 338 337 330 316 322 339 338 331 327 323 333 350 356 356 356 355 357 357 355 354 354 354 351 350 348
317 319 321 321 320 318 320 325 325 323 324 326 326 327 331 329 325 325 327 324 320 323 326 326 326 325 325 326 326 324 323 323 322 324 327 326 325 327 328 330 328 322 319 321 323 327 328 328 329 328 330 330 326 328 328 329 329 324 328 325 316 321 327 325 325 323 320 325 336 337 332 327 327 342 354 354 356 357 354 354 354 354 353 353 353 352 351 349
318 321 324 325 324 321 321 323 323 324 326 327 327 332 334 328 323 325 325 321 320 324 325 327 327 327 325 324 324 324 322 322 323 324 326 328 327 326 327 330 330 323 321 323 319 318 323 328 329 326 327 329 328 325 320 323 327 322 324 319 316 320 320 320 324 324 322 324 329 337 332 324 331 349 356 352 354 356 354 353 353 353 353 354 353 351 350 349
319 322 325 327 327 325 324 322 323 326 326 326 331 335 330 324 327 329 324 322 324 326 327 328 327 326 326 324 324 323 321 322 323 324 325 328 326 324 326 328 328 326 326 323 319 316 316 322 327 327 326 328 329 327 323 327 327 325 331 327 322 326 324 324 328 325 320 323 328 330 326 324 332 347 355 353 351 354 353 352 355 354 354 356 354 352 351 351
321 324 325 327 329 328 325 323 324 326 325 330 336 334 327 324 327 327 325 326 327 328 329 328 326 325 323 324 326 324 322 322 323 324 325 328 326 325 328 328 327 329 325 320 320 320 314 316 328 329 327 328 328 327 327 327 324 325 331 325 318 326 327 322 328 331 325 325 327 325 325 331 340 350 358 356 353 357 355 355 357 357 359 357 356 355 352 350
323 326 326 326 329 329 324 323 326 325 327 336 337 331 329 328 326 325 327 328 327 329 328 325 327 322 318 322 325 325 324 324 325 324 323 327 328 327 329 328 326 327 325 323 322 320 314 317 328 329 325 328 326 326 327 324 323 325 322 318 319 329 328 317 320 330 324 321 327 327 328 335 342 348 355 355 356 358 357 358 358 359 364 362 357 357 354 351
325 328 328 328 329 328 324 325 328 326 328 337 338 335 333 329 327 327 328 328 326 329 326 322 325 321 316 318 322 324 325 322 323 322 319 323 326 327 330 328 327 328 325 324 323 323 319 317 326 327 324 328 326 326 328 326 328 325 315 318 324 325 329 323 319 322 319 319 325 325 328 333 335 342 352 355 357 357 357 358 357 360 367 365 358 356 354 353
325 328 331 331 330 328 326 327 327 327 331 337 339 340 335 328 328 327 326 327 326 328 327 321 324 325 320 317 320 325 325 319 321 320 318 321 323 325 329 328 327 328 325 325 325 327 323 315 322 330 325 325 326 324 323 323 327 324 318 327 326 318 321 322 317 315 316 319 322 323 329 333 330 336 346 352 356 356 358 359 357 360 363 362 359 357 358 356
326 333 338 334 331 330 328 328 327 330 334 337 337 336 331 328 328 327 326 327 326 327 328 325 324 325 324 321 322 326 325 320 320 319 317 319 321 324 329 328 327 327 325 325 325 328 328 317 318 330 328 324 324 323 318 318 323 323 321 326 327 324 324 321 317 316 317 320 322 326 329 333 340 346 345 351 356 354 357 359 360 359 358 360 363 363 365 362
327 337 338 331 331 330 329 327 328 332 334 336 336 332 327 326 325 325 327 326 326 326 327 328 326 324 325 325 323 325 326 325 323 322 319 320 321 323 328 328 327 328 325 326 325 327 328 319 316 326 327 321 319 321 320 320 320 318 317 317 318 322 322 319 319 319 319 322 328 332 329 335 363 370 350 350 354 351 353 357 361 359 357 362 365 363 363 362
329 339 334 328 330 329 328 328 329 332 333 334 333 328 325 327 326 327 327 326 328 328 327 327 327 326 325 325 324 325 325 326 326 326 323 321 320 321 326 327 326 328 326 326 327 325 325 323 317 317 318 316 320 325 324 324 322 319 318 317 317 318 317 318 319 319 319 321 328 334 328 334 363 363 347 351 353 351 355 355 359 360 358 364 367 363 363 364
332 338 331 327 329 327 329 333 332 332 331 331 330 326 327 329 328 327 328 329 330 329 328 327 326 327 326 325 326 326 326 325 326 327 325 325 324 323 326 327 325 326 327 326 326 326 331 329 317 317 324 322 321 326 324 322 324 322 321 322 324 322 318 314 315 319 320 319 328 336 328 336 364 359 345 352 353 352 356 355 357 359 361 369 369 365 367 368
331 332 330 326 326 326 331 338 339 334 331 330 329 328 328 329 329 329 330 331 330 330 331 330 327 328 327 327 327 326 325 324 325 327 326 326 328 326 329 331 327 326 326 325 325 329 334 328 318 323 340 339 332 332 327 323 324 320 321 324 324 323 322 320 323 328 325 320 330 339 333 343 371 365 349 353 356 356 357 357 360 363 366 369 369 368 368 367
328 329 332 328 325 327 331 335 335 332 330 329 327 327 329 328 327 328 329 329 331 332 334 332 330 330 330 330 329 328 328 325 325 328 328 329 331 330 332 333 331 329 329 332 332 326 327 329 322 320 326 332 333 329 320 321 323 322 327 329 324 325 327 322 323 329 326 323 329 336 333 344 364 359 351 354 358 359 359 359 363 366 366 365 365 367 366 363
329 329 331 326 322 327 330 328 328 329 329 328 327 328 329 328 327 327 328 328 331 335 336 334 331 330 330 330 330 332 332 330 328 331 332 332 333 333 333 332 332 333 338 349 347 329 327 334 333 322 315 318 323 324 323 326 325 324 328 326 325 326 324 321 321 327 330 331 331 331 333 344 354 351 350 356 359 361 363 362 362 364 363 363 365 365 364 362
330 330 329 325 322 325 326 324 325 328 328 328 328 329 327 326 326 326 328 329 331 335 338 335 332 330 330 331 331 333 335 334 332 333 335 333 332 333 332 331 333 336 344 353 347 336 334 336 341 339 324 317 327 339 346 337 322 318 321 322 324 325 325 326 324 327 335 335 330 331 335 338 343 349 353 356 359 361 364 364 363 363 361 363 364 363 363 363
327 328 326 325 326 327 326 325 325 326 327 328 329 328 326 326 325 326 329 329 328 331 333 333 331 331 331 331 331 334 334 334 334 333 333 332 331 332 330 330 334 338 342 342 337 338 336 326 332 343 330 321 333 343 340 328 321 319 319 320 323 325 325 323 319 326 337 331 324 334 341 335 339 351 353 354 358 360 362 363 363 362 360 362 363 364 364 364
324 325 322 321 327 330 328 327 327 325 326 329 329 327 326 326 326 327 328 328 328 328 330 332 332 331 331 330 332 335 333 332 334 333 332 331 330 331 331 331 333 335 335 332 332 336 331 324 328 331 327 328 332 331 329 327 326 325 323 321 322 324 322 319 324 335 338 327 326 338 345 339 342 350 350 351 356 356 358 360 359 359 361 362 364 365 365 365
320 322 320 320 323 326 325 325 326 326 328 331 332 328 324 324 324 324 326 328 328 327 328 331 331 331 331 330 331 334 332 331 333 332 331 332 331 331 333 333 333 332 331 330 333 333 329 331 336 327 326 332 332 328 329 327 324 324 326 327 326 327 323 323 335 345 338 331 335 342 345 344 345 348 347 348 352 353 355 357 357 359 363 364 364 365 365 363
318 319 320 320 322 324 325 324 326 328 329 330 330 326 323 324 323 323 324 326 326 327 326 327 328 329 330 329 330 332 331 330 332 331 330 331 331 333 334 334 333 331 330 330 333 333 329 332 339 333 327 330 334 331 328 326 325 323 324 328 328 326 325 325 332 340 340 338 339 342 344 345 346 346 346 347 351 354 356 357 358 359 362 364 365 364 363 363
315 316 317 320 327 330 326 324 325 327 327 325 325 324 322 323 322 322 324 324 324 325 325 325 327 328 329 329 329 329 328 328 330 330 329 330 330 331 332 333 332 330 332 332 331 334 333 331 336 332 321 324 333 329 325 327 327 322 322 327 326 323 327 327 327 335 341 340 339 338 338 342 346 347 347 350 354 356 356 357 357 359 360 363 365 364 364 364
314 316 316 319 329 332 324 322 324 325 324 323 322 323 322 322 322 323 325 325 323 323 325 326 328 328 329 329 328 327 326 326 327 328 328 329 329 328 328 330 329 329 333 333 330 337 338 332 333 328 319 323 330 326 326 327 323 322 326 326 324 327 329 329 330 337 341 342 338 335 335 341 347 347 348 353 355 356 356 356 357 358 359 361 362 363 363 362
Wind_Speed
13 14 14 14 15 15 15 15 15 16 16 16 17 17 17 18 18 18 18 18 17 15 13 12 11 12 11 10 10 12 13 9 6 7 8 9 12 13 10 10 15 17 15 15 14 12 9 6 5 6 5 2 1 1 2 1 1 2 2 3 3 2 2 2 4 3 2 4 5 8 6 1 1 1 5 8 9 10 9 8 9 9 10 13 19 31 32 30
14 14 14 15 15 15 15 15 15 16 16 16 16 17 17 17 18 18 18 18 18 16 14 12 11 11 11 11 12 13 14 11 6 9 13 9 11 18 13 10 16 19 18 18 17 14 10 6 5 5 3 1 1 1 2 1 1 2 2 3 2 3 2 2 3 2 4 4 7 8 6 2 3 3 5 7 9 10 10 10 11 12 13 14 21 30 30 30
14 14 14 15 15 15 15 16 16 16 16 16 16 16 17 17 17 17 17 17 17 16 14 12 11 10 10 11 12 14 13 7 3 7 7 11 16 19 16 14 18 19 18 18 19 18 14 11 9 5 3 0 1 2 2 1 0 1 2 3 1 4 4 3 4 4 6 5 7 6 5 5 2 2 5 9 10 11 11 11 12 13 15 14 14 19 24 27
14 14 14 15 15 15 16 16 16 16 16 16 17 17 17 17 17 17 17 17 17 16 15 12 11 9 9 10 11 13 11 4 2 5 3 16 21 19 17 17 18 18 17 16 18 18 13 11 9 5 2 1 1 2 2 2 1 1 2 3 3 5 4 4 6 5 6 5 5 5 5 6 5 2 6 10 9 7 9 13 15 17 18 16 13 15 19 21
14 14 14 15 15 15 16 16 16 17 17 17 17 17 17 17 17 17 17 17 16 16 15 12 11 9 9 9 9 10 7 3 2 2 3 16 23 21 19 18 18 16 16 15 14 13 8 8 6 3 1 1 1 1 2 4 2 2 1 2 5 4 3 4 5 5 6 5 3 4 4 4 5 3 4 8 7 5 8 13 17 18 19 18 16 16 18 18
14 14 14 15 15 15 16 16 16 17 17 17 17 17 18 17 17 17 17 17 16 15 14 12 10 8 8 7 7 7 2 0 4 1 4 11 22 23 20 18 17 16 17 15 12 9 5 6 4 3 2 1 2 2 2 2 2 3 1 1 3 3 3 4 4 5 6 3 1 2 2 5 4 3 1 5 4 4 11 15 17 17 20 22 19 17 17 16
15 14 14 15 15 16 16 16 17 17 17 17 17 17 18 18 18 18 17 17 16 15 14 12 9 6 6 6 5 4 2 4 11 7 5 9 20 22 21 18 17 17 18 15 12 8 5 7 6 3 2 2 3 3 3 3 4 4 2 3 3 2 2 3 3 4 4 1 2 3 4 4 4 3 2 3 1 8 16 16 17 17 21 24 20 17 17 17
15 15 15 16 16 16 16 17 17 17 17 17 18 18 18 18 18 18 18 17 16 15 13 11 9 5 4 4 3 3 1 8 14 11 5 11 20 22 21 18 18 19 19 18 16 10 6 7 8 4 2 4 3 4 4 5 4 3 2 3 3 2 2 2 3 3 4 3 3 4 4 2 1 2 2 3 1 14 17 15 18 16 18 20 19 19 18 18
15 15 16 16 17 17 17 18 18 18 18 18 18 18 18 19 19 19 18 17 16 15 13 10 8 4 3 2 3 2 5 8 9 8 7 16 20 23 23 20 22 21 19 20 17 9 6 6 8 7 5 5 4 4 6 5 2 4 5 4 4 4 4 4 4 5 4 2 1 2 3 3 3 2 1 5 4 16 17 16 18 16 16 16 16 18 17 17
16 16 16 17 17 18 18 18 18 19 19 19 19 18 19 19 19 20 18 17 15 14 13 9 6 2 1 2 4 1 6 6 6 5 13 19 21 25 24 21 23 23 17 15 15 11 9 8 8 8 5 4 5 5 5 3 3 7 8 6 6 6 5 4 4 4 3 2 3 2 3 5 4 2 2 5 4 15 18 17 17 16 16 15 13 15 16 17
17 17 17 18 18 19 19 19 19 19 20 19 19 19 19 19 20 20 18 15 14 14 12 8 4 2 2 4 4 4 4 4 7 12 17 20 21 26 27 23 23 25 18 11 13 16 15 16 12 6 4 3 6 6 5 3 5 8 9 5 4 3 3 3 3 3 3 2 5 4 1 5 4 2 5 5 1 10 18 17 17 17 15 15 14 13 13 13
18 18 19 19 19 20 20 20 20 20 20 20 20 19 19 19 20 20 17 14 13 13 10 6 3 4 2 3 5 12 5 3 6 13 17 20 21 24 25 24 23 25 22 11 12 19 21 22 12 3 4 5 6 4 5 5 6 7 7 5 3 1 1 4 4 3 4 3 5 6 2 5 3 3 7 4 1 7 16 17 16 16 14 14 13 11 10 11
20 20 20 20 20 20 21 21 21 21 21 21 21 20 19 19 20 18 15 12 12 11 8 3 4 4 1 1 9 16 11 6 6 8 13 18 18 21 22 22 21 24 23 17 16 19 20 19 7 1 5 6 3 3 5 6 7 4 4 3 3 2 3 6 4 3 4 3 5 6 1 4 5 8 8 4 1 6 11 13 14 14 12 12 12 10 9 11
20 21 21 21 21 21 21 21 22 22 22 22 21 20 19 18 18 16 12 11 10 8 5 2 5 4 2 5 13 14 13 13 13 14 15 18 17 18 21 21 19 22 23 22 21 19 17 12 5 2 2 5 3 4 5 4 4 3 2 2 3 2 3 4 4 6 5 3 6 6 1 4 6 8 9 5 1 6 7 6 8 11 11 10 11 10 10 11
21 21 21 21 22 21 22 22 22 23 23 23 22 21 19 18 16 12 8 9 8 6 2 3 5 3 1 8 14 12 10 10 15 17 16 20 20 14 17 22 22 23 23 23 23 22 20 11 4 2 1 3 5 5 3 1 1 1 2 0 2 3 2 2 4 8 7 3 6 6 1 4 5 7 7 4 3 6 6 4 3 6 9 11 10 10 10 10
22 22 22 22 22 22 22 23 23 23 24 24 23 22 19 17 15 10 6 6 6 3 1 3 2 2 0 5 8 9 7 7 15 20 19 24 25 16 19 23 21 23 23 22 23 20 16 8 1 2 1 4 5 5 3 2 2 2 2 3 3 4 2 1 3 8 8 4 5 6 3 2 4 5 5 4 6 7 5 4 3 3 5 10 10 9 9 9
23 23 23 23 23 23 23 23 23 24 25 25 25 22 20 17 12 7 4 3 3 1 2 0 2 1 3 7 7 7 7 9 14 19 21 27 28 21 19 16 12 17 19 19 19 12 5 2 2 2 1 3 4 4 3 1 5 3 1 2 3 4 4 2 2 6 7 5 6 7 4 3 4 5 6 6 7 7 5 3 3 2 2 6 8 8 8 9
24 24 24 24 24 23 23 23 24 24 25 26 25 24 20 13 7 3 3 3 3 3 1 3 2 1 3 6 5 4 5 11 15 15 19 27 31 25 19 12 8 11 9 9 11 5 1 1 1 2 3 2 4 5 4 6 6 5 4 2 3 3 5 6 3 5 9 7 7 7 6 7 5 5 7 6 8 8 7 5 3 3 2 3 5 7 8 10
26 25 25 25 24 23 23 23 23 25 26 26 24 21 13 4 1 3 5 4 3 1 1 3 4 2 3 5 5 5 3 11 16 13 16 24 27 23 16 10 7 7 4 3 4 4 3 1 1 2 5 6 6 7 9 8 6 7 7 5 4 4 4 6 4 5 12 8 7 9 8 8 6 6 7 6 7 8 7 6 4 3 3 3 4 4 7 10
26 26 26 25 24 24 23 23 24 24 25 26 24 16 5 2 3 1 1 2 4 6 5 6 8 5 7 6 4 6 6 6 12 13 17 21 18 13 8 5 4 4 5 4 4 3 4 3 4 6 9 10 7 9 11 9 6 6 5 4 6 6 5 6 4 5 10 7 7 10 9 8 7 8 8 6 6 7 7 7 6 4 3 4 4 5 8 10
27 27 26 26 26 24 23 23 23 23 24 25 20 8 0 0 1 1 2 4 8 11 10 9 13 12 13 11 9 6 5 3 7 11 20 21 13 6 4 4 4 4 6 6 4 2 4 5 8 11 13 12 10 10 11 9 10 8 6 5 5 6 6 6 6 6 9 6 7 8 7 8 8 8 7 6 7 8 9 9 9 8 6 5 5 6 9 7
28 27 27 27 26 25 24 23 22 23 23 19 10 1 3 4 3 3 2 4 9 13 14 13 13 14 16 20 23 13 3 5 8 8 18 17 10 6 5 5 5 4 5 4 3 2 2 6 13 15 12 10 11 11 9 10 11 10 6 4 4 4 2 3 4 6 8 5 4 7 8 8 7 8 8 8 8 7 9 11 10 10 9 7 6 7 8 7
28 27 28 26 26 26 23 22 23 20 15 10 5 5 7 12 12 12 5 4 8 9 12 13 14 12 12 17 23 14 5 6 7 8 17 16 8 7 6 5 6 4 4 5 5 4 4 8 11 12 10 9 11 10 10 11 9 9 7 4 3 4 3 2 3 6 8 5 1 5 6 4 2 4 6 8 7 5 6 9 8 9 10 9 8 7 8 9
28 28 27 26 27 25 22 24 19 10 10 11 10 9 15 20 17 15 6 2 6 6 11 16 13 9 13 14 11 9 7 7 6 7 16 15 6 6 6 6 7 5 5 7 8 7 8 11 8 7 8 10 11 12 9 7 5 7 9 7 4 6 9 5 4 7 5 4 0 4 1 4 2 6 6 6 5 5 5 7 7 7 9 8 8 8 9 10
30 28 27 26 26 23 23 20 6 2 12 11 11 11 19 18 12 8 3 1 5 5 6 11 9 7 15 14 8 7 4 6 7 8 15 15 9 7 4 4 5 6 8 8 7 6 11 13 9 7 9 9 10 11 8 5 3 3 7 9 8 11 11 4 9 9 3 4 5 5 2 5 3 7 8 5 5 7 6 7 9 7 8 8 8 9 9 10
31 28 27 25 23 23 19 8 2 8 15 8 8 14 14 14 14 4 2 3 5 4 1 4 5 8 11 9 7 4 2 5 9 11 16 18 15 10 4 2 3 5 8 7 4 3 8 11 9 10 11 11 9 8 8 6 5 2 5 8 7 9 9 10 12 8 4 4 6 8 6 3 3 6 9 8 8 10 7 8 11 8 8 8 8 9 10 10
33 29 27 22 19 20 12 4 8 12 8 5 9 14 11 13 16 3 4 4 4 3 2 1 2 6 8 9 11 8 0 5 6 8 15 18 14 9 6 5 3 5 5 3 3 3 6 9 9 10 10 10 7 5 8 6 6 3 5 3 2 4 7 13 13 8 5 1 1 6 6 1 3 5 7 9 8 9 8 9 11 10 10 10 9 9 10 11
34 29 26 20 14 14 10 8 12 8 4 8 13 12 11 14 12 3 4 1 3 2 3 2 1 5 5 7 13 8 5 5 6 6 12 19 14 7 6 7 6 8 7 5 6 5 5 7 8 9 8 7 6 6 8 5 4 6 6 5 3 6 6 13 12 6 3 3 1 4 5 2 4 4 3 8 8 8 10 12 12 12 12 11 10 11 11 12
33 29 24 19 11 9 8 8 8 5 6 11 12 11 11 11 7 4 4 1 2 1 1 0 1 3 2 7 12 9 6 3 4 4 8 15 13 6 5 7 8 9 7 6 7 6 5 7 7 7 6 5 7 8 7 7 5 6 4 3 2 2 4 11 10 5 3 2 4 7 7 4 4 3 4 6 6 9 11 11 11 11 11 11 10 10 11 11
32 27 22 18 10 3 4 8 9 4 9 12 12 11 9 6 4 4 1 1 2 2 0 1 1 3 6 8 8 9 9 5 2 3 5 7 8 5 3 5 6 5 4 4 6 7 8 8 5 5 5 5 7 6 5 8 8 3 3 3 2 3 3 5 4 4 4 2 6 7 10 7 3 3 4 5 8 12 10 8 9 10 10 10 10 10 10 10
30 26 21 17 8 3 3 4 3 4 11 14 13 9 5 4 4 3 1 2 3 2 0 0 2 3 9 10 7 9 11 7 3 5 3 3 4 2 2 3 3 1 2 4 4 5 7 8 5 4 5 5 4 4 4 5 4 3 4 4 2 5 3 4 4 3 3 4 7 6 9 9 4 4 6 9 8 8 11 10 10 12 12 11 10 10 10 11
27 23 18 14 7 8 8 4 0 5 11 12 9 5 4 4 2 2 3 3 2 1 1 1 3 3 8 10 7 8 9 6 4 5 5 5 5 4 4 5 5 2 3 4 4 5 6 7 6 5 6 6 5 3 5 5 2 3 3 4 2 3 3 3 3 1 2 5 6 4 6 5 5 5 8 13 9 6 11 12 11 13 13 12 12 11 10 9
24 18 13 9 6 9 9 4 3 6 8 9 7 4 5 3 2 4 4 3 1 2 4 2 6 5 7 7 5 7 8 7 6 5 6 6 7 7 6 5 7 6 3 4 3 3 4 7 7 6 6 6 7 4 2 2 0 3 3 4 4 2 2 1 3 1 1 5 6 3 3 1 4 4 6 13 12 9 11 11 11 13 12 12 12 12 11 10
22 14 9 8 7 7 5 3 2 2 6 8 5 4 4 2 3 4 2 3 4 6 6 5 6 5 7 6 6 7 6 6 7 7 6 5 5 6 5 5 6 7 3 3 3 4 4 6 6 6 5 4 7 8 6 4 2 4 5 5 4 4 4 3 3 2 3 5 4 2 1 2 3 4 4 7 8 7 9 9 9 10 9 9 9 10 11 11
17 9 8 8 8 5 2 5 5 1 4 5 5 4 2 3 3 2 1 4 5 5 8 11 7 6 7 5 5 6 6 5 6 6 6 7 6 6 5 6 7 6 4 3 3 3 6 7 7 8 7 7 8 7 5 5 0 3 3 6 3 5 5 3 3 5 4 1 3 1 1 2 3 3 5 2 4 5 7 7 7 7 6 7 7 9 10 11
13 7 7 7 6 4 3 10 10 5 2 5 5 1 3 3 3 1 2 5 6 6 11 13 4 3 3 3 3 4 4 4 5 5 4 7 9 9 8 7 9 10 7 5 3 3 4 6 6 6 6 8 10 7 6 6 3 2 2 3 5 5 7 3 2 2 2 2 3 1 3 0 1 3 6 3 7 6 6 7 8 7 6 7 8 9 10 10
13 8 5 5 4 2 8 12 12 7 4 6 4 1 3 3 3 3 4 7 8 8 8 8 2 2 2 1 3 5 4 2 4 5 4 5 7 10 12 9 11 14 11 9 5 3 5 5 8 7 8 10 10 9 7 7 6 4 3 5 2 3 4 3 1 2 1 1 4 1 4 3 3 1 3 2 7 7 6 8 8 6 6 7 7 8 9 11
12 9 5 4 2 5 10 12 10 6 4 5 1 2 3 2 3 5 6 8 10 9 5 3 2 2 3 1 3 5 3 0 3 3 3 4 4 9 13 9 10 16 15 12 5 3 6 4 9 8 8 7 7 8 5 3 3 5 5 3 4 2 1 1 2 2 2 3 1 3 2 3 4 4 4 6 8 9 7 7 7 7 7 7 6 6 7 8
8 5 3 1 3 8 10 10 6 4 5 3 0 2 2 3 6 8 9 8 8 7 5 2 2 1 2 1 3 4 4 1 2 3 2 3 4 9 15 9 9 15 16 13 7 3 5 4 5 6 3 2 4 4 4 4 4 2 1 1 2 4 3 2 3 4 3 3 2 2 2 2 4 5 9 11 10 10 9 7 6 7 7 6 6 5 6 7
4 3 1 2 8 11 10 7 3 5 3 2 3 3 3 5 8 10 10 8 6 4 4 3 2 2 1 1 2 2 2 1 1 2 3 3 2 7 13 10 8 12 15 15 11 5 3 3 5 5 2 5 2 4 8 7 5 3 2 4 2 1 1 2 2 3 4 3 3 3 1 4 5 4 10 12 9 9 9 7 6 5 5 6 6 6 5 6
3 3 1 6 12 14 10 4 3 2 1 2 2 3 4 5 6 10 10 8 4 4 4 4 3 3 2 2 2 2 2 2 2 2 3 2 2 3 7 10 9 9 11 12 10 5 3 3 4 2 1 5 6 6 9 10 9 7 6 5 4 3 1 1 3 3 2 3 4 5 2 5 5 3 8 9 8 8 8 8 7 5 6 6 5 6 6 5
2 2 1 6 15 13 7 2 1 1 2 3 3 4 5 5 7 9 8 5 4 3 5 5 4 3 2 3 4 3 2 2 2 1 2 2 2 2 5 7 11 10 8 7 9 9 5 3 4 3 3 6 7 7 7 10 9 7 6 6 5 4 4 4 4 4 1 3 2 4 3 5 5 1 5 8 7 8 9 10 9 6 6 6 5 6 6 5
2 2 5 2 13 10 6 2 3 2 2 5 5 6 7 6 6 7 6 5 5 5 5 5 6 7 7 8 7 5 4 3 3 2 2 2 5 6 12 15 10 7 6 5 7 8 4 3 3 3 3 3 6 6 5 4 3 5 4 4 5 5 5 6 5 3 3 2 2 5 2 5 5 4 1 6 7 7 8 10 10 7 5 5 7 7 7 6
1 4 5 7 2 3 5 2 4 5 4 6 7 6 6 5 4 7 7 5 4 3 3 4 6 8 8 9 9 8 9 5 2 4 4 4 6 8 16 22 15 2 2 2 3 6 4 2 4 2 3 4 6 6 4 4 1 2 3 4 5 6 6 4 2 3 2 2 4 6 2 6 4 5 2 6 9 8 7 8 9 8 6 6 7 7 7 7
3 2 2 9 10 5 3 1 3 4 6 8 8 7 8 6 6 10 10 8 4 2 1 2 6 9 10 11 9 8 10 7 3 6 7 7 7 7 13 20 14 10 8 7 2 5 6 2 4 5 2 3 1 1 3 4 3 2 2 4 5 7 6 4 2 3 2 2 3 6 4 4 2 3 2 6 10 8 6 6 7 7 7 7 7 7 7 7
2 2 3 6 8 6 1 2 5 3 5 8 7 6 8 7 6 9 10 8 7 4 2 2 7 11 12 14 11 8 9 7 5 6 7 9 8 5 10 14 11 15 19 16 11 3 3 2 3 7 7 7 7 6 6 3 1 3 4 5 7 7 4 5 4 1 3 4 2 3 7 7 4 4 6 7 10 9 7 7 7 7 7 7 7 7 7 7
3 2 4 4 4 4 3 4 7 6 7 7 5 4 7 8 6 7 7 6 8 7 4 4 9 10 9 13 9 6 8 7 6 9 8 8 9 10 14 13 10 18 21 15 11 6 1 0 2 6 6 7 8 7 5 2 1 5 6 6 8 8 5 6 4 5 6 7 1 6 10 13 10 10 10 10 9 9 8 9 9 8 8 8 7 8 7 7
3 0 3 3 2 3 3 5 7 9 10 8 4 4 7 9 8 7 6 4 6 8 5 4 7 7 6 10 7 6 10 8 7 10 9 8 10 13 15 12 8 15 18 12 8 5 1 1 2 4 3 4 5 7 6 4 4 5 5 6 7 7 7 7 5 7 9 8 6 10 13 14 12 11 12 12 11 11 10 9 9 8 8 9 9 9 8 8
4 2 3 4 2 2 3 7 9 9 9 6 4 6 8 10 10 8 7 5 5 8 8 6 7 6 6 8 6 5 9 7 6 8 8 9 9 8 9 9 7 12 15 11 8 5 2 3 2 3 0 3 2 4 5 5 4 3 5 7 6 6 8 7 7 10 9 7 10 14 13 12 11 11 13 13 11 10 9 7 7 9 9 10 10 10 9 9
3 2 3 4 3 4 4 6 7 5 5 5 5 7 8 9 10 8 6 6 6 7 8 9 10 7 6 9 8 6 8 7 5 7 7 8 8 5 4 4 5 11 13 9 7 6 4 5 7 1 3 4 6 5 4 2 2 4 7 5 2 3 5 2 7 9 4 2 10 15 12 8 7 9 11 10 8 9 9 8 9 9 10 11 11 10 10 9
6 4 5 2 3 4 4 5 6 4 4 6 6 8 9 9 9 7 4 4 7 7 8 10 11 8 6 11 12 10 11 10 8 7 6 6 5 3 3 3 4 10 10 6 6 6 4 5 7 5 5 4 5 5 6 5 4 2 6 8 4 2 3 2 5 7 5 7 11 12 9 7 5 7 10 9 10 12 12 10 9 7 8 10 11 10 10 10
11 6 7 2 2 4 4 4 6 4 4 6 7 9 9 9 10 9 5 5 9 11 9 10 10 7 6 12 13 12 13 12 11 8 6 6 6 5 6 8 8 7 6 5 5 4 3 4 5 4 3 4 4 4 4 6 7 4 4 6 6 4 5 5 3 6 9 12 13 10 9 8 8 11 11 11 11 12 12 11 9 8 8 9 10 10 10 9
Wind_Direction
15 13 10 8 4 3 360 357 356 353 352 350 349 350 349 351 350 352 351 350 351 350 354 353 352 353 350 350 344 340 333 321 288 234 228 242 217 192 171 178 175 167 169 168 165 165 170 175 159 137 113 99 135 160 153 163 108 74 78 93 114 150 155 179 181 186 275 291 290 304 313 110 205 59 114 130 123 136 137 122 124 112 109 113 125 138 141 143
13 12 9 7 4 2 360 358 355 352 351 348 347 346 345 346 346 348 346 346 346 344 348 348 349 348 349 348 342 339 331 320 285 246 241 230 194 189 183 177 175 171 174 178 180 180 181 183 165 138 92 66 215 176 175 211 100 111 105 92 137 155 145 201 160 216 257 271 278 283 304 317 197 151 118 127 130 136 125 120 124 115 110 106 123 137 141 143
10 8 5 4 1 359 358 356 354 351 349 347 345 342 342 342 342 342 342 343 341 340 340 341 345 345 349 345 343 340 329 329 275 266 242 188 181 189 186 179 177 174 179 185 186 193 200 186 165 143 84 14 222 168 187 242 118 150 106 89 205 152 147 186 162 230 246 260 277 281 317 338 262 135 107 126 132 138 137 138 136 129 129 125 129 135 138 143
7 4 2 360 357 356 354 352 351 349 347 345 342 340 339 338 338 338 338 338 336 336 333 335 341 340 347 343 346 340 331 3 262 289 175 173 177 181 177 176 182 179 182 188 190 205 209 170 153 150 125 246 225 132 172 211 160 100 105 141 182 151 148 185 182 229 255 246 254 295 339 340 321 23 107 127 126 139 149 148 146 144 143 141 141 140 142 145
5 1 359 357 355 353 351 349 348 346 344 343 341 338 337 335 335 334 333 334 331 332 328 328 333 336 345 344 348 338 339 41 250 344 108 178 178 178 173 173 184 182 182 189 202 217 206 148 137 158 176 223 142 81 185 196 154 83 45 137 158 153 153 187 185 223 253 242 254 334 359 321 324 33 100 126 133 161 151 145 146 146 146 146 148 146 148 151
2 359 358 354 353 351 349 348 346 345 343 341 340 337 335 333 332 331 330 329 328 328 325 322 328 335 340 348 353 335 359 81 235 16 17 187 180 179 174 177 186 184 185 197 217 226 194 147 141 170 195 229 176 179 188 171 111 103 116 147 171 185 150 171 180 209 244 269 318 327 326 318 0 61 101 116 133 164 139 140 145 145 146 147 149 150 154 159
359 356 354 351 350 348 347 346 345 343 342 340 339 336 334 332 332 330 327 326 324 324 321 317 320 327 343 357 359 5 97 263 253 264 313 191 183 180 173 180 188 187 189 201 220 226 196 165 176 182 163 231 199 178 162 102 80 98 141 199 184 177 130 172 190 196 222 246 273 297 327 346 37 42 359 40 83 145 136 139 144 145 146 147 153 159 163 165
356 353 350 348 346 344 343 342 342 340 339 338 337 336 334 332 331 328 325 323 320 322 317 312 312 316 348 0 3 15 178 255 262 268 260 180 181 180 172 180 191 191 191 204 213 213 215 184 184 178 167 221 182 155 151 99 83 103 159 208 156 150 183 187 205 216 216 225 261 300 327 329 344 346 355 329 187 139 137 141 143 149 152 154 161 165 167 169
354 351 349 346 343 341 340 339 338 336 335 335 334 334 333 331 330 327 324 320 318 318 313 309 305 302 349 27 84 359 261 248 270 274 203 176 178 180 177 182 193 193 195 212 215 211 231 206 187 184 197 205 146 155 164 115 140 176 169 188 156 169 192 176 193 207 212 249 262 282 312 307 309 348 294 275 175 139 141 145 147 154 160 166 168 168 172 171
352 350 348 345 343 341 339 337 336 334 333 333 332 332 331 330 330 327 323 317 316 315 312 307 290 271 53 91 101 311 275 265 259 202 175 176 174 181 186 190 193 192 199 217 216 216 224 225 217 198 207 194 149 171 174 137 178 167 158 177 177 175 172 171 211 206 188 233 206 203 307 305 326 44 208 257 158 142 147 151 156 158 164 175 175 171 175 175
348 348 345 344 342 339 338 336 334 333 331 330 330 330 330 329 329 328 323 317 316 313 311 303 268 202 134 106 118 216 274 294 225 174 170 178 175 183 192 198 197 192 201 219 220 223 225 237 240 205 204 185 157 173 186 177 160 154 145 156 198 182 149 166 231 225 175 206 198 158 15 317 343 62 211 255 312 154 154 157 164 164 168 176 177 174 177 179
346 344 343 341 339 337 336 334 332 331 329 328 327 328 329 329 329 329 324 320 316 314 312 298 223 182 137 102 205 232 227 102 168 167 171 180 185 191 194 201 203 198 201 209 230 230 230 240 245 156 161 154 145 165 198 184 145 148 135 132 183 104 265 213 206 206 169 185 183 138 55 320 311 239 239 258 294 162 159 164 168 169 173 174 175 174 175 180
344 342 341 339 337 335 333 331 330 328 327 326 324 326 328 327 329 329 326 323 316 316 315 281 189 176 119 182 242 246 238 198 197 214 202 194 197 198 197 202 209 211 208 210 229 235 237 248 265 100 148 143 162 167 178 166 128 141 135 124 141 75 275 224 184 168 161 185 168 133 100 271 256 246 255 274 149 137 151 168 171 170 174 171 170 171 173 179
343 341 339 338 336 333 331 328 327 325 324 323 321 323 326 326 328 328 326 322 318 321 315 205 168 153 126 252 266 271 265 252 248 249 229 210 204 200 203 207 213 221 221 225 240 253 262 279 325 290 179 132 166 138 138 141 116 145 129 75 124 131 270 220 170 161 160 197 153 117 167 238 250 244 249 271 167 129 127 149 170 170 171 166 167 170 171 176
343 341 338 336 335 332 330 327 324 322 321 320 318 320 323 323 322 323 328 327 323 318 301 164 173 152 50 277 277 288 283 255 236 233 225 210 203 198 206 210 216 225 230 236 247 261 272 297 6 271 277 111 138 133 131 99 38 135 133 202 190 184 268 269 198 175 164 192 149 128 185 245 251 235 233 241 115 121 124 108 139 161 165 166 167 167 169 175
344 342 338 336 335 333 330 326 323 321 319 318 316 317 321 320 312 305 308 321 327 313 148 125 179 160 354 281 286 296 270 214 212 216 219 212 202 195 203 209 217 226 233 240 247 259 270 291 330 212 174 112 137 139 113 70 302 282 152 196 208 185 219 274 234 198 172 149 168 177 185 233 246 221 207 180 118 111 128 128 121 116 152 165 165 168 167 172
345 342 339 337 335 333 329 326 323 321 318 316 315 317 319 315 299 284 291 319 355 21 153 57 331 164 252 274 294 289 235 205 207 201 205 210 205 199 198 204 221 228 232 239 247 260 277 290 228 237 44 132 159 132 101 206 238 253 168 201 228 188 179 188 234 212 180 152 188 208 213 238 238 185 177 173 141 130 146 163 166 130 132 157 161 171 165 169
346 342 339 337 334 332 329 326 323 321 318 315 316 320 321 316 285 228 139 129 92 52 318 298 336 45 257 262 272 268 203 201 206 196 195 203 207 207 197 194 215 223 224 234 247 256 258 292 205 257 307 208 167 140 170 219 211 198 184 196 238 191 179 194 214 198 180 175 188 197 228 251 248 180 175 180 153 147 168 184 189 177 173 159 155 175 168 169
346 343 340 337 333 331 328 325 323 322 318 313 317 325 326 344 102 142 131 129 114 89 274 214 174 157 257 247 247 275 255 198 199 201 193 191 202 211 205 202 209 202 188 197 250 240 195 289 297 238 263 234 192 177 205 224 206 196 192 175 173 181 206 207 217 194 172 175 198 191 213 235 230 196 184 184 166 155 169 180 190 200 216 195 156 177 178 171
346 343 339 336 332 330 327 324 323 322 319 316 322 335 342 66 62 77 129 179 207 216 221 193 190 231 280 281 266 288 307 208 198 208 202 191 196 212 214 208 195 178 177 174 228 242 162 183 237 225 238 241 218 200 214 228 227 217 208 199 173 177 232 223 217 201 160 162 221 206 210 222 207 201 194 179 169 165 167 176 188 197 224 211 171 175 183 176
344 342 339 336 331 328 325 323 323 320 318 316 322 340 227 185 75 279 269 236 229 225 237 220 200 224 253 264 268 289 331 266 224 213 207 201 189 196 216 186 164 190 205 188 205 252 134 182 228 225 231 241 237 224 216 218 225 226 218 218 195 187 229 229 201 187 154 161 232 213 210 227 206 195 197 174 171 185 181 178 185 190 203 209 185 178 182 174
343 341 338 335 331 327 324 323 321 317 313 310 312 239 234 269 260 299 308 263 252 221 230 239 221 232 246 258 267 269 299 260 254 227 203 195 174 179 208 179 162 204 221 198 212 265 184 221 235 231 233 238 245 246 233 227 224 223 220 200 210 207 234 267 189 159 155 173 240 208 205 234 211 186 192 184 185 198 194 187 185 185 193 198 189 181 179 169
343 340 337 334 329 325 322 322 318 315 315 309 278 215 287 310 304 309 313 271 276 218 212 230 226 236 238 253 264 251 232 237 241 222 191 180 170 174 184 188 181 197 209 195 203 216 227 244 238 232 240 243 251 253 239 242 229 210 203 185 221 203 164 243 204 155 170 186 190 178 202 260 205 168 200 203 198 202 202 202 196 189 193 195 190 184 179 173
343 341 337 333 328 325 322 322 316 316 338 318 269 268 322 328 314 306 306 264 285 240 214 216 209 222 224 231 243 208 209 225 218 211 185 173 159 157 174 190 182 197 210 200 201 210 235 250 247 239 245 241 251 258 242 238 233 203 193 188 198 190 191 203 154 141 171 228 283 107 106 295 186 170 211 217 212 215 204 206 212 207 203 198 189 188 183 177
344 341 336 333 329 323 322 323 308 342 342 309 265 309 341 346 338 307 289 342 291 269 226 210 195 221 222 217 216 190 193 224 214 196 180 174 156 152 190 190 168 204 216 212 210 220 244 251 254 255 256 249 251 263 253 210 206 218 203 203 189 183 197 163 121 122 117 251 241 137 125 285 225 186 203 196 200 216 204 199 212 214 211 205 192 191 189 180
344 340 336 335 329 322 326 329 267 328 329 286 269 326 340 350 353 326 166 37 298 268 185 172 174 202 203 189 191 167 42 256 216 176 171 177 168 156 181 193 164 207 210 216 217 220 241 242 241 240 247 253 247 254 248 199 153 217 226 219 204 184 177 144 137 140 138 221 223 174 176 270 283 216 207 186 191 210 207 203 212 211 207 207 198 192 188 181
342 340 337 336 331 327 330 302 307 322 317 279 314 331 334 345 352 2 115 26 294 230 147 193 179 177 184 172 156 135 141 242 200 173 173 179 172 146 163 183 175 206 201 196 223 230 231 232 238 234 237 249 243 240 237 179 124 241 243 179 206 227 172 152 155 169 179 177 206 179 165 85 292 242 200 175 185 209 214 213 214 212 207 205 200 195 188 182
341 341 337 335 332 321 305 288 309 316 286 316 331 333 338 346 352 40 99 21 265 187 145 239 205 166 182 162 150 159 225 191 167 201 180 175 173 135 166 188 176 206 208 185 225 250 234 229 236 234 235 237 229 227 222 176 148 237 229 144 186 248 190 159 164 186 175 96 306 211 151 115 273 273 155 160 183 210 218 217 213 210 209 204 198 195 190 184
341 342 337 333 329 305 287 278 283 290 318 334 340 337 342 349 4 61 89 121 266 275 139 146 163 175 160 144 159 194 229 172 174 205 153 169 182 150 175 195 181 211 221 192 225 260 250 234 221 217 231 227 232 236 208 182 204 229 205 156 209 262 162 156 162 167 121 118 233 218 169 171 267 273 141 148 190 214 216 217 214 208 207 203 198 193 189 187
342 344 337 330 326 289 281 275 261 305 354 347 343 343 349 1 45 69 66 253 285 292 108 92 212 162 141 145 173 205 214 219 197 121 108 169 185 155 156 173 169 210 251 229 238 256 261 263 235 198 210 215 233 249 213 197 208 197 79 67 346 356 80 120 141 127 119 215 247 215 179 178 259 273 188 171 205 211 202 205 209 205 204 201 198 192 186 187
343 344 333 323 313 215 231 274 253 10 355 340 336 346 15 32 61 97 190 269 298 288 171 226 275 140 151 164 179 196 210 231 178 122 112 157 169 165 115 126 158 197 292 277 274 278 279 281 269 229 218 213 225 262 269 248 215 146 83 77 356 325 23 38 5 62 133 239 256 217 170 170 211 261 217 210 223 207 191 196 196 194 200 200 196 193 188 186
344 343 330 316 284 221 222 228 279 342 337 342 346 7 70 56 30 183 245 326 351 269 286 229 250 211 171 179 187 187 197 218 188 146 143 152 170 199 184 170 176 181 259 255 273 301 288 271 269 270 248 214 193 247 297 317 9 107 95 88 85 314 11 19 320 6 178 248 250 198 132 155 222 245 212 209 216 199 192 198 192 188 192 196 196 193 189 185
345 342 331 318 285 246 242 256 303 312 338 360 8 45 84 85 234 226 256 317 337 294 320 255 235 215 169 181 202 188 188 201 194 169 156 156 172 202 222 207 172 164 206 223 231 279 293 289 276 265 261 216 178 189 249 280 152 140 155 132 145 159 75 263 270 329 229 264 267 220 136 147 262 273 217 200 201 196 192 195 193 190 187 189 194 191 187 187
345 341 330 319 312 293 267 250 256 314 357 8 32 67 89 147 237 243 258 287 280 296 320 318 279 219 176 197 203 171 178 205 190 162 145 147 169 203 234 239 188 163 160 189 196 202 234 281 260 227 242 212 190 199 186 167 170 185 170 136 140 157 145 193 215 173 224 261 294 280 173 162 208 268 253 198 191 188 184 190 190 191 189 179 183 186 185 189
349 340 328 322 328 330 243 171 163 132 15 31 62 72 134 210 266 273 284 305 307 309 319 321 296 211 197 228 223 181 177 201 192 159 140 157 178 199 203 218 212 175 139 177 206 202 218 251 246 231 233 196 191 204 156 115 233 249 146 116 158 187 160 167 196 184 185 246 310 303 144 196 198 291 329 61 117 141 162 174 176 184 182 156 164 181 185 192
2 356 336 325 336 360 141 149 146 145 79 67 67 63 213 229 268 274 305 312 317 321 320 321 314 179 222 253 263 242 209 189 184 174 164 170 177 193 196 205 208 190 170 181 209 201 209 252 254 252 260 215 191 179 149 143 193 253 126 168 214 179 143 135 258 249 110 125 264 201 113 282 138 354 337 63 115 132 149 158 168 172 159 149 167 181 184 193
8 5 336 301 317 72 132 138 139 140 88 76 92 211 244 257 280 298 305 303 306 310 316 318 326 56 353 287 335 313 269 217 183 186 189 180 180 192 198 204 202 198 190 182 202 203 184 265 275 263 270 240 191 160 164 168 145 135 200 212 184 103 100 103 190 301 29 194 259 155 134 170 153 142 296 170 144 160 166 162 165 163 156 168 184 183 188 196
360 354 328 293 260 146 135 135 141 135 78 69 86 262 256 253 280 292 289 291 299 299 296 296 289 44 37 334 331 331 321 277 213 216 192 193 210 195 195 203 201 202 199 185 200 221 177 243 280 265 261 239 170 143 169 214 163 167 203 183 114 123 301 32 169 212 249 226 276 27 98 184 189 177 188 190 182 180 182 175 167 169 177 188 196 188 189 196
3 1 343 344 148 145 143 148 144 86 64 74 259 266 250 258 272 275 278 285 293 288 271 257 269 45 61 348 317 328 343 347 235 271 221 200 237 205 196 197 196 202 200 185 189 209 168 190 270 286 295 115 107 130 173 239 256 205 234 264 131 152 171 185 179 170 193 215 181 59 53 229 237 200 178 191 195 180 180 184 177 180 181 181 185 180 180 188
15 27 358 137 133 135 143 148 93 50 71 153 209 234 267 277 277 273 277 287 292 281 263 252 306 335 332 330 318 293 313 321 205 277 261 211 233 220 206 199 194 200 197 188 190 189 146 180 244 296 9 115 145 201 181 193 204 160 189 229 205 121 185 228 224 168 154 169 156 119 106 254 255 208 181 189 193 184 179 169 167 177 169 169 172 158 157 173
9 38 153 159 145 140 135 118 40 79 145 263 232 244 270 262 274 281 279 286 286 269 274 278 306 316 279 302 317 280 300 297 193 220 269 245 237 241 225 215 205 192 187 191 194 180 151 186 217 271 114 166 232 232 185 183 181 164 181 198 177 177 189 212 272 262 135 133 155 139 156 255 262 198 179 182 180 182 168 144 145 157 158 167 164 132 128 149
40 53 289 153 156 151 115 77 308 173 199 271 237 239 268 258 268 283 287 307 328 333 334 324 319 319 314 324 316 297 301 294 260 232 256 297 297 292 312 273 230 194 169 191 201 187 161 153 194 226 200 206 249 253 206 195 175 154 178 187 164 160 144 150 226 256 68 74 87 101 123 251 272 243 170 167 160 162 152 138 139 146 154 156 133 108 116 135
69 301 327 102 170 164 75 26 300 348 264 270 267 257 269 266 268 284 299 335 1 15 5 346 346 349 346 340 329 324 332 302 275 269 251 321 344 352 354 334 289 209 170 189 202 189 166 142 177 255 295 292 300 291 249 227 146 133 187 182 159 177 176 173 195 185 121 125 97 75 63 258 283 347 111 146 135 137 139 135 134 135 142 135 119 112 119 121
341 260 322 2 208 165 58 1 317 348 307 301 317 309 306 312 328 334 336 358 29 34 14 351 351 346 339 349 355 356 355 335 306 5 15 353 341 359 358 345 339 10 162 224 192 183 196 184 144 117 333 333 343 338 316 303 282 181 202 188 187 207 200 181 150 94 110 204 154 121 172 251 290 4 45 133 122 121 134 135 134 136 140 133 123 121 125 123
336 250 283 346 355 27 66 358 352 347 321 328 330 331 338 335 355 4 2 15 38 60 61 337 347 355 355 0 7 8 9 9 357 7 17 355 343 8 357 340 351 22 3 346 359 185 188 172 132 134 178 223 261 296 243 244 252 242 206 179 196 229 224 199 138 87 118 208 139 130 179 241 332 38 138 143 125 126 138 134 131 134 138 138 134 133 134 135
15 19 326 331 356 26 47 341 12 3 335 338 323 326 344 331 345 11 13 11 2 14 79 15 5 15 4 355 359 2 4 9 7 4 14 1 344 347 340 332 356 15 4 5 6 346 163 155 159 150 167 192 192 211 219 195 273 286 253 200 207 231 210 133 109 139 167 145 141 184 162 151 155 171 176 160 143 146 154 147 139 135 136 140 143 145 145 147
45 29 8 341 324 357 0 351 7 354 328 329 309 304 336 332 338 3 12 4 352 5 50 44 31 32 358 344 351 354 348 358 21 11 5 358 340 331 337 338 2 11 6 7 358 346 111 194 189 158 183 203 194 214 222 151 218 254 246 220 220 225 181 133 159 206 161 121 179 227 164 150 176 187 173 171 164 156 161 163 157 149 145 146 145 145 147 152
37 53 14 9 303 339 357 323 328 326 316 316 318 334 352 3 7 360 354 353 359 11 22 20 34 42 357 343 347 352 354 3 20 7 356 358 349 342 342 337 354 13 9 1 350 354 37 294 159 152 227 242 203 222 224 191 202 232 242 235 233 225 193 177 192 184 158 148 184 198 174 164 177 182 174 175 171 163 169 172 160 146 141 143 144 147 154 159
28 12 356 12 343 267 267 286 295 303 311 318 344 1 10 23 18 357 350 3 6 12 15 1 7 20 10 2 13 24 10 3 3 358 351 353 354 351 343 327 334 6 5 355 345 1 37 320 273 154 14 321 293 253 238 215 208 230 249 236 225 229 217 190 173 169 168 174 172 170 174 180 178 177 179 179 168 159 163 165 151 143 145 147 148 154 162 167
23 353 340 355 329 284 266 291 302 301 329 359 16 6 7 23 18 357 0 26 12 358 9 4 351 348 12 26 33 32 9 350 338 341 337 341 349 360 350 324 329 343 345 344 337 351 33 333 304 351 61 334 325 344 344 302 226 245 270 267 216 251 273 225 164 164 142 125 158 157 165 198 197 171 168 168 156 148 155 164 161 156 156 154 154 161 165 167
8 329 342 337 291 314 312 320 331 335 6 18 17 3 360 9 13 359 342 22 18 357 1 9 356 343 14 31 24 3 347 335 315 308 309 309 308 301 287 280 314 327 326 330 330 336 19 345 319 10 41 305 297 339 347 358 26 342 306 308 310 271 273 246 171 171 153 139 146 149 166 202 197 156 155 163 160 158 163 167 164 165 166 160 160 169 170 170
7 345 355 354 243 327 340 333 347 9 24 13 7 4 0 1 13 17 356 354 9 5 9 26 21 4 19 21 2 336 325 316 298 285 273 263 261 252 244 260 276 286 292 311 321 316 17 8 333 356 15 291 297 341 3 30 32 0 308 303 304 287 269 267 217 178 168 151 149 169 191 186 159 152 159 167 167 166 167 168 168 172 174 170 171 173 173 176